Weather History for KRBW - January, 2013

Change the Weather History Date:

Wednesday, January 30, 2013

  Actual Average Record
Temperature  
Mean Temperature 67 °F -  
Max Temperature 77 °F 64 °F 77 °F (2013)
Min Temperature 55 °F 35 °F 24 °F (2014)
Cooling Degree Days 2    
Growing Degree Days 17 (Base 50)    
Moisture  
Dew Point 62 °F    
Average Humidity 82    
Maximum Humidity 100    
Minimum Humidity 57    
Precipitation  
Precipitation 0.00 in - - ()
Sea Level Pressure  
Sea Level Pressure 29.89 in    
Wind  
Wind Speed 14 mph (South)    
Max Wind Speed 33 mph    
Max Gust Speed 43 mph    
Visibility 10 miles    
Events Rain    
Averages and records for this station are not official NWS values.
T = Trace of Precipitation, MM = Missing Value Source: NWS Daily Summary

Daily Weather History Graph

Daily Weather History Graph

Search for Another Location

Airport or City:

Trip Planner

Search our weather history database for the weather conditions in past years. The results will help you decide how hot, cold, wet, or windy it might be!

Date:

Astronomy

Jan. 30, 2013 Rise Set
Actual Time 7:18 AM EST 5:53 PM EST
Civil Twilight 6:52 AM EST 6:19 PM EST
Nautical Twilight 6:23 AM EST 6:48 PM EST
Astronomical Twilight 5:54 AM EST 7:18 PM EST
Moon 9:34 PM EST (1/30) 9:00 AM EST (1/30)
Length of Visible Light 11h 26m
Length of Day
10h 34m
Waning Gibbous, 88% of the Moon is Illuminated
Jan 30
Waning Gibbous
Feb 3
Last Quarter
Feb 10
New
Feb 17
First Quarter
Feb 25
Full

Hourly Weather History & Observations

Time (EST) Temp. Dew Point Humidity Pressure Visibility Wind Dir Wind Speed Gust Speed Precip Events Conditions
12:15 AM 62.6 °F 62.6 °F 100% 30.11 in 10.0 mi South 8.1 mph - N/A   Scattered Clouds
12:35 AM 62.6 °F 62.6 °F 100% 30.11 in 10.0 mi South 6.9 mph - N/A   Mostly Cloudy
1:15 AM 64.4 °F 64.4 °F 100% 30.10 in 10.0 mi South 8.1 mph - N/A   Scattered Clouds
1:35 AM 64.4 °F 64.4 °F 100% 30.08 in 10.0 mi South 6.9 mph - N/A   Scattered Clouds
1:55 AM 64.4 °F 64.4 °F 100% 30.08 in 10.0 mi South 8.1 mph - N/A   Overcast
2:15 AM 64.4 °F 64.4 °F 100% 30.07 in 10.0 mi South 9.2 mph - N/A   Mostly Cloudy
2:35 AM 64.4 °F 64.4 °F 100% 30.07 in 10.0 mi South 8.1 mph - N/A   Clear
2:55 AM 64.4 °F 64.4 °F 100% 30.06 in 10.0 mi South 8.1 mph - N/A   Scattered Clouds
3:35 AM 64.4 °F 64.4 °F 100% 30.05 in 10.0 mi South 9.2 mph - N/A   Overcast
3:55 AM 64.4 °F 64.4 °F 100% 30.05 in 10.0 mi South 8.1 mph - N/A   Overcast
4:15 AM 64.4 °F 64.4 °F 100% 30.04 in 10.0 mi South 8.1 mph - N/A   Overcast
4:35 AM 64.4 °F 64.4 °F 100% 30.03 in 10.0 mi South 9.2 mph - N/A   Overcast
4:55 AM 64.4 °F 64.4 °F 100% 30.04 in 10.0 mi South 9.2 mph - N/A   Overcast
5:15 AM 64.4 °F 64.4 °F 100% 30.03 in 10.0 mi South 5.8 mph - N/A   Overcast
5:35 AM 64.4 °F 64.4 °F 100% 30.03 in 10.0 mi South 5.8 mph - N/A   Overcast
5:55 AM 64.4 °F 64.4 °F 100% 30.03 in 10.0 mi South 6.9 mph - N/A   Overcast
6:15 AM 64.4 °F 64.4 °F 100% 30.02 in 10.0 mi South 10.4 mph - N/A   Overcast
6:35 AM 66.2 °F 64.4 °F 94% 30.01 in 10.0 mi SSE 12.7 mph 20.7 mph N/A   Overcast
6:55 AM 66.2 °F 66.2 °F 100% 30.00 in 10.0 mi South 13.8 mph 21.9 mph N/A   Overcast
7:15 AM 66.2 °F 66.2 °F 100% 30.01 in 10.0 mi South 11.5 mph - N/A   Overcast
7:35 AM 68.0 °F 66.2 °F 94% 30.01 in 10.0 mi South 13.8 mph 17.3 mph N/A   Overcast
7:55 AM 68.0 °F 64.4 °F 88% 30.00 in 10.0 mi South 15.0 mph 24.2 mph N/A   Overcast
8:15 AM 68.0 °F 64.4 °F 88% 30.00 in 10.0 mi South 15.0 mph 23.0 mph N/A   Overcast
8:35 AM 68.0 °F 64.4 °F 88% 29.99 in 10.0 mi South 13.8 mph 21.9 mph N/A   Overcast
8:55 AM 68.0 °F 64.4 °F 88% 29.99 in 10.0 mi South 15.0 mph 24.2 mph N/A   Overcast
9:15 AM 68.0 °F 64.4 °F 88% 29.99 in 10.0 mi SSW 17.3 mph 23.0 mph N/A   Overcast
9:35 AM 69.8 °F 64.4 °F 83% 30.00 in 10.0 mi South 18.4 mph 24.2 mph N/A   Overcast
9:55 AM 71.6 °F 64.4 °F 78% 29.98 in 10.0 mi South 17.3 mph 23.0 mph N/A   Overcast
10:15 AM 71.6 °F 62.6 °F 73% 29.98 in 10.0 mi South 18.4 mph 21.9 mph N/A   Overcast
10:35 AM 73.4 °F 62.6 °F 69% 29.98 in 10.0 mi South 16.1 mph 24.2 mph N/A   Overcast
10:55 AM 73.4 °F 60.8 °F 65% 29.97 in 10.0 mi SSW 25.3 mph 31.1 mph N/A   Overcast
11:15 AM 73.4 °F 60.8 °F 65% 29.95 in 10.0 mi South 20.7 mph 33.4 mph N/A   Overcast
11:35 AM 75.2 °F 60.8 °F 61% 29.95 in 10.0 mi South 26.5 mph 36.8 mph N/A   Overcast
11:55 AM 75.2 °F 59.0 °F 57% 29.94 in 10.0 mi South 28.8 mph 36.8 mph N/A   Overcast
12:15 PM 75.2 °F 59.0 °F 57% 29.92 in 10.0 mi SSW 26.5 mph 35.7 mph N/A   Mostly Cloudy
12:35 PM 73.4 °F 60.8 °F 65% 29.90 in 10.0 mi South 24.2 mph 34.5 mph N/A   Mostly Cloudy
12:55 PM 75.2 °F 60.8 °F 61% 29.89 in 10.0 mi South 24.2 mph 35.7 mph N/A   Overcast
1:15 PM 75.2 °F 60.8 °F 61% 29.87 in 10.0 mi South 19.6 mph 34.5 mph N/A   Overcast
1:35 PM 75.2 °F 60.8 °F 61% 29.85 in 10.0 mi South 23.0 mph 35.7 mph N/A   Mostly Cloudy
1:55 PM 73.4 °F 60.8 °F 65% 29.85 in 10.0 mi South 23.0 mph 33.4 mph N/A   Mostly Cloudy
2:15 PM 75.2 °F 60.8 °F 61% 29.84 in 10.0 mi South 27.6 mph 42.6 mph N/A   Mostly Cloudy
2:35 PM 75.2 °F 60.8 °F 61% 29.83 in 10.0 mi South 28.8 mph 39.1 mph N/A   Mostly Cloudy
2:55 PM 77.0 °F 60.8 °F 57% 29.81 in 10.0 mi South 26.5 mph 34.5 mph N/A   Mostly Cloudy
3:15 PM 73.4 °F 59.0 °F 61% 29.80 in 10.0 mi South 24.2 mph 33.4 mph N/A   Mostly Cloudy
3:35 PM 73.4 °F 59.0 °F 61% 29.79 in 10.0 mi South 24.2 mph 32.2 mph N/A   Mostly Cloudy
3:55 PM 73.4 °F 59.0 °F 61% 29.77 in 10.0 mi South 20.7 mph 29.9 mph N/A   Mostly Cloudy
4:15 PM 71.6 °F 59.0 °F 64% 29.77 in 10.0 mi South 26.5 mph 38.0 mph N/A   Scattered Clouds
4:35 PM 71.6 °F 59.0 °F 64% 29.76 in 10.0 mi South 20.7 mph 31.1 mph N/A   Scattered Clouds
4:55 PM 71.6 °F 59.0 °F 64% 29.76 in 10.0 mi South 20.7 mph 25.3 mph N/A   Scattered Clouds
5:15 PM 69.8 °F 59.0 °F 68% 29.76 in 10.0 mi South 21.9 mph 32.2 mph N/A   Scattered Clouds
5:35 PM 69.8 °F 59.0 °F 68% 29.74 in 10.0 mi South 19.6 mph 27.6 mph N/A   Mostly Cloudy
5:55 PM 68.0 °F 60.8 °F 78% 29.74 in 10.0 mi SSE 20.7 mph 26.5 mph N/A   Scattered Clouds
6:15 PM 68.0 °F 60.8 °F 78% 29.73 in 10.0 mi South 17.3 mph 31.1 mph N/A   Scattered Clouds
6:35 PM 68.0 °F 60.8 °F 78% 29.72 in 10.0 mi South 19.6 mph 26.5 mph N/A   Clear
6:55 PM 68.0 °F 60.8 °F 78% 29.70 in 10.0 mi South 19.6 mph 29.9 mph N/A   Clear
7:15 PM 68.0 °F 60.8 °F 78% 29.70 in 10.0 mi South 17.3 mph 23.0 mph N/A   Scattered Clouds
7:35 PM 68.0 °F 60.8 °F 78% 29.71 in 10.0 mi South 16.1 mph 23.0 mph N/A   Scattered Clouds
7:55 PM 68.0 °F 60.8 °F 78% 29.71 in 10.0 mi South 20.7 mph 26.5 mph N/A   Mostly Cloudy
8:15 PM 68.0 °F 60.8 °F 78% 29.70 in 10.0 mi South 18.4 mph 29.9 mph N/A   Scattered Clouds
8:35 PM 68.0 °F 60.8 °F 78% 29.69 in 10.0 mi South 19.6 mph 24.2 mph N/A   Scattered Clouds
8:55 PM 68.0 °F 60.8 °F 78% 29.69 in 10.0 mi South 17.3 mph 29.9 mph N/A   Scattered Clouds
9:15 PM 68.0 °F 60.8 °F 78% 29.65 in 10.0 mi SSE 21.9 mph 28.8 mph N/A   Mostly Cloudy
9:35 PM 68.0 °F 60.8 °F 78% 29.66 in 10.0 mi South 19.6 mph 29.9 mph N/A   Mostly Cloudy
9:55 PM 68.0 °F 60.8 °F 78% 29.65 in 10.0 mi South 21.9 mph 25.3 mph N/A   Mostly Cloudy
10:15 PM 68.0 °F 60.8 °F 78% 29.71 in 5.0 mi West 33.4 mph 39.1 mph N/A Rain Heavy Rain
10:35 PM 60.8 °F 60.8 °F 100% 29.72 in 7.0 mi West 16.1 mph 24.2 mph N/A Rain Light Rain
10:55 PM 60.8 °F 60.8 °F 100% 29.72 in 10.0 mi WSW 10.4 mph - N/A Rain Rain
11:15 PM 60.8 °F 60.8 °F 100% 29.75 in 10.0 mi West 13.8 mph 19.6 mph N/A Rain Light Rain
11:35 PM 57.2 °F 57.2 °F 100% 29.76 in 5.0 mi West 13.8 mph 21.9 mph N/A Rain Rain
11:55 PM 55.4 °F 55.4 °F 100% 29.76 in 5.0 mi West 13.8 mph 25.3 mph N/A Rain Rain